Location: Aciu?a
(46.2833°N, 22.4500°E)
Time: 04:41:29
(UTC+00:00)

In-Cosmos 22 Rocket - Pass Details

Date: 25 October 2021
Orbit: 790 x 888 km, 81.2° (Epoch: 30 November)

Event Time Altitude Azimuth Distance (km) Brightness Sun altitude
Rises 16:33:48 0° 353° (N) 3,306 7.3 -12.2°
Reaches altitude 10° 16:36:17 10° 359° (N) 2,368 6.5 -12.7°
Maximum altitude 16:41:26 49° 74° (ENE) 1,018 4.2 -13.6°
Drops below altitude 10° 16:46:34 10° 149° (SSE) 2,358 6.3 -14.4°
Sets 16:49:01 0° 155° (SSE) 3,291 7.0 -14.9°
